Weather History for Iron Mountain, MI

Change the Weather History Date:

Friday, November 23, 2012

  Actual Average Record
Temperature  
Mean Temperature 30 °F -  
Max Temperature 35 °F 36 °F 56 °F (1963)
Min Temperature 23 °F 21 °F 0 °F (1950)
Degree Days  
Heating Degree Days 36    
Moisture  
Dew Point 20 °F    
Average Humidity 74    
Maximum Humidity 86    
Minimum Humidity 64    
Precipitation  
Precipitation 0.00 in - - ()
Sea Level Pressure  
Sea Level Pressure 29.83 in    
Wind  
Wind Speed 18 mph (WNW)    
Max Wind Speed 31 mph    
Max Gust Speed 44 mph    
Visibility 7 miles    
Events Snow    
Averages and records for this station are not official NWS values.
T = Trace of Precipitation, MM = Missing Value Source: NWS Daily Summary

Daily Weather History Graph

Daily Weather History Graph

Search for Another Location

Airport:

Trip Planner

Search our weather history database for the weather conditions in past years. The results will help you decide how hot, cold, wet, or windy it might be!

Date:

Astronomy

Nov. 23, 2012 Rise Set
Actual Time 7:03 AM CST 4:13 PM CST
Civil Twilight 6:30 AM CST 4:46 PM CST
Nautical Twilight 5:54 AM CST 5:23 PM CST
Astronomical Twilight 5:18 AM CST 5:59 PM CST
Moon 1:39 PM CST (11/23) 2:10 AM CST (11/23)
Length of Visible Light 10h 16m
Length of Day
9h 09m
Waxing Gibbous, 80% of the Moon is Illuminated
Nov 23
Waxing Gibbous
Nov 28
Full
Dec 6
Last Quarter
Dec 13
New
Dec 19
First Quarter

Hourly Weather History & Observations

Time (CST) Temp. Windchill Dew Point Humidity Pressure Visibility Wind Dir Wind Speed Gust Speed Precip Events Conditions
12:51 AM 35.6 °F 26.2 °F 28.4 °F 75% 29.55 in 9.0 mi West 15.0 mph 24.2 mph 0.00 in Snow Light Snow
12:54 AM 35.1 °F 24.8 °F 28.9 °F 78% 29.57 in 7.0 mi West 17.3 mph 24.2 mph 0.00 in Snow Light Snow
1:19 AM 33.8 °F 23.2 °F 26.6 °F 75% 29.56 in 10.0 mi West 17.3 mph 27.6 mph 0.00 in   Overcast
1:54 AM 32.0 °F 19.8 °F 25.0 °F 75% 29.59 in 8.0 mi West 20.7 mph 27.6 mph 0.00 in Snow Light Snow
2:54 AM 30.9 °F 19.4 °F 21.9 °F 69% 29.59 in 10.0 mi West 17.3 mph 26.5 mph 0.00 in   Overcast
3:41 AM 28.4 °F 16.6 °F 21.2 °F 74% 29.57 in 9.0 mi West 16.1 mph 26.5 mph 0.00 in Snow Light Snow
3:54 AM 28.9 °F 18.6 °F 21.9 °F 75% 29.59 in 4.0 mi West 12.7 mph 21.9 mph 0.00 in Snow Light Snow
4:26 AM 28.4 °F 16.6 °F 23.0 °F 80% 29.57 in 2.0 mi West 16.1 mph 24.2 mph 0.00 in Snow Light Snow
4:33 AM 28.4 °F 17.5 °F 23.0 °F 80% 29.57 in 1.5 mi West 13.8 mph 23.0 mph 0.00 in Snow Light Snow
4:54 AM 28.0 °F 17.5 °F 24.1 °F 85% 29.61 in 1.2 mi West 12.7 mph - 0.00 in Snow Light Snow
5:12 AM 28.4 °F 18.0 °F 24.8 °F 86% 29.58 in 2.0 mi West 12.7 mph 21.9 mph 0.00 in Snow Light Snow
5:26 AM 28.4 °F 19.1 °F 24.8 °F 86% 29.59 in 5.0 mi West 10.4 mph 24.2 mph 0.00 in Snow Light Snow
5:54 AM 30.0 °F 16.9 °F 24.1 °F 79% 29.62 in 9.0 mi WNW 21.9 mph 28.8 mph 0.00 in   Overcast
7:54 AM 27.0 °F 14.3 °F 21.9 °F 81% 29.72 in 2.0 mi NW 17.3 mph 26.5 mph 0.00 in Snow Light Snow
7:58 AM 26.6 °F 14.3 °F 21.2 °F 80% 29.69 in 1.8 mi WNW 16.1 mph 24.2 mph 0.00 in Snow Light Snow
8:26 AM 26.6 °F 13.8 °F 23.0 °F 86% 29.70 in 0.8 mi NW 17.3 mph 28.8 mph 0.00 in Snow Light Snow
8:38 AM 26.6 °F 14.3 °F 23.0 °F 86% 29.71 in 1.0 mi NW 16.1 mph 23.0 mph 0.00 in Snow Light Snow
8:48 AM 28.4 °F 15.8 °F 21.2 °F 74% 29.71 in 3.0 mi NW 18.4 mph 33.4 mph 0.00 in Snow Light Snow
8:54 AM 28.0 °F 13.6 °F 21.0 °F 75% 29.75 in 4.0 mi WNW 24.2 mph 31.1 mph 0.00 in Snow Light Snow
9:35 AM 28.4 °F 13.8 °F 19.4 °F 69% 29.74 in 10.0 mi NW 25.3 mph 35.7 mph 0.00 in   Overcast
10:44 AM 28.4 °F 12.5 °F 19.4 °F 69% 29.79 in 9.0 mi NW 31.1 mph 43.7 mph 0.00 in   Overcast
10:52 AM 28.4 °F 14.1 °F 19.4 °F 69% 29.79 in 9.0 mi NW 24.2 mph 43.7 mph 0.00 in   Overcast
10:54 AM 28.0 °F 13.0 °F 19.9 °F 72% 29.83 in 9.0 mi WNW 26.5 mph 39.1 mph 0.00 in   Overcast
11:54 AM 28.9 °F 13.7 °F 19.0 °F 67% 29.87 in 10.0 mi NW 28.8 mph 43.7 mph 0.00 in   Overcast
12:44 PM 28.4 °F 14.1 °F 19.4 °F 69% 29.86 in 4.0 mi NW 24.2 mph 40.3 mph 0.00 in Snow Light Snow
12:54 PM 28.0 °F 13.6 °F 19.9 °F 72% 29.91 in 3.0 mi NW 24.2 mph 35.7 mph 0.00 in Snow Light Snow
1:37 PM 26.6 °F 11.4 °F 19.4 °F 74% 29.90 in 4.0 mi NW 25.3 mph 34.5 mph 0.00 in Snow Light Snow
1:54 PM 27.0 °F 11.0 °F 19.0 °F 72% 29.96 in 6.0 mi NW 28.8 mph 39.1 mph 0.00 in Snow Light Snow
2:54 PM 26.1 °F 12.7 °F 19.0 °F 75% 30.01 in 5.0 mi NW 18.4 mph 36.8 mph 0.00 in Snow Light Snow
3:54 PM 26.1 °F 11.6 °F 19.0 °F 75% 30.04 in 6.0 mi NW 21.9 mph 38.0 mph 0.00 in Snow Light Snow
4:54 PM 26.1 °F 12.0 °F 17.1 °F 69% 30.06 in 9.0 mi NW 20.7 mph 28.8 mph 0.00 in Snow Light Snow
5:17 PM 26.6 °F 12.4 °F 17.6 °F 69% 30.01 in 9.0 mi NW 21.9 mph 32.2 mph 0.00 in Snow Light Snow
5:25 PM 26.6 °F 13.8 °F 17.6 °F 69% 30.01 in 10.0 mi NW 17.3 mph 31.1 mph 0.00 in   Overcast
5:54 PM 26.1 °F 11.3 °F 17.1 °F 69% 30.08 in 10.0 mi NW 23.0 mph 38.0 mph 0.00 in   Overcast
6:26 PM 26.6 °F 12.0 °F 15.8 °F 64% 30.04 in 10.0 mi NW 23.0 mph 31.1 mph N/A   Overcast
6:49 PM 26.6 °F 13.8 °F 17.6 °F 69% 30.05 in 9.0 mi NNW 17.3 mph - 0.00 in Snow Light Snow
6:54 PM 26.1 °F 13.1 °F 17.1 °F 69% 30.11 in 9.0 mi NW 17.3 mph 24.2 mph 0.00 in Snow Light Snow
7:40 PM 24.8 °F 10.0 °F 15.8 °F 69% 30.06 in 10.0 mi NW 21.9 mph 29.9 mph 0.00 in   Overcast
7:54 PM 25.0 °F 10.2 °F 16.0 °F 69% 30.12 in 10.0 mi NW 21.9 mph 29.9 mph 0.00 in   Overcast
8:54 PM 25.0 °F 11.3 °F 16.0 °F 69% 30.12 in 10.0 mi NW 18.4 mph 26.5 mph N/A   Overcast
9:54 PM 25.0 °F 10.9 °F 15.1 °F 66% 30.13 in 10.0 mi NW 19.6 mph 28.8 mph N/A   Overcast
10:54 PM 24.1 °F 9.8 °F 14.0 °F 65% 30.14 in 10.0 mi NW 19.6 mph - N/A   Overcast
11:54 PM 23.0 °F 8.7 °F 12.9 °F 65% 30.15 in 10.0 mi NW 18.4 mph 33.4 mph N/A   Overcast